RH
32 28 30 35 39 39 38 38 36 34 31 27 29 38 49 62 75 83 85 87 87 82 76 72 71 70 71 73 72 67 60 59 59 58 58 55 52 48 47 45 44 42 41 41 39 38 39 40 41 41 39 38 37 37 35 33 31 31 36 37 37 36 33 32 29 27 26 26 26 23 21 20 19 20 20 21 19 13 10 9 9 11 14 18 22 24 27 29
35 32 33 36 39 39 38 37 34 30 25 22 27 38 48 58 72 83 86 87 86 84 80 76 76 73 71 68 65 64 59 55 55 54 53 52 50 48 46 44 42 41 40 39 38 37 36 36 37 37 37 37 34 31 28 27 27 29 35 35 33 32 28 24 21 21 22 22 23 22 20 19 18 17 14 11 11 9 9 9 8 11 15 21 26 28 29 29
37 34 34 35 36 36 35 35 31 25 22 20 26 39 48 57 71 82 88 88 82 80 79 78 76 72 69 62 56 57 57 57 56 52 50 50 47 46 43 41 40 39 38 37 36 34 34 34 35 35 34 33 30 26 24 24 24 25 27 29 29 28 23 19 16 16 17 17 18 18 17 16 15 13 10 8 9 10 10 10 10 13 17 23 27 28 28 27
38 33 31 32 33 33 33 33 28 22 20 19 25 40 51 59 71 81 84 83 76 73 70 69 70 67 63 59 57 58 58 57 54 49 48 46 44 42 40 39 37 36 35 33 33 33 33 31 30 28 27 26 23 21 21 21 21 21 22 24 24 22 19 17 14 12 13 12 11 11 12 12 11 10 9 9 10 12 12 11 11 13 16 19 21 22 22 23
39 33 29 30 31 33 32 29 24 20 20 20 24 38 54 62 71 78 79 74 69 65 60 59 60 58 55 54 56 56 55 54 50 47 46 43 42 39 37 37 35 34 32 31 32 32 30 26 23 22 21 20 18 17 17 15 16 18 19 19 19 18 15 13 11 10 10 9 9 9 9 10 9 9 10 11 11 13 14 13 12 12 13 14 15 15 15 16
43 36 31 31 31 31 30 26 23 22 21 23 27 35 48 59 67 73 73 68 62 57 54 53 52 51 50 50 49 47 48 49 46 45 43 41 39 36 35 35 33 32 31 31 31 28 25 21 20 18 17 17 16 14 13 12 12 15 16 14 15 16 13 11 10 10 9 9 9 9 9 9 9 11 12 13 14 15 15 14 13 13 13 13 13 12 13 14
48 40 34 33 32 31 30 27 26 25 24 28 32 35 41 50 59 64 62 60 56 53 50 49 48 48 47 45 44 42 43 43 42 41 40 38 36 34 33 33 32 31 31 30 27 23 20 19 17 15 14 14 13 12 11 11 10 12 14 12 12 13 11 10 10 9 9 9 9 9 9 9 11 12 13 15 17 17 16 14 13 13 13 13 13 14 14 15
48 39 35 34 34 32 31 30 30 29 29 32 34 36 40 47 53 54 52 50 50 50 47 45 44 44 44 44 44 43 41 41 41 40 38 36 34 33 33 33 31 28 26 24 21 19 17 16 15 13 12 12 11 11 10 10 11 11 12 12 11 11 10 9 9 9 9 8 8 9 9 10 12 13 16 17 18 19 16 14 14 14 14 14 15 16 17 17
46 37 31 31 31 31 31 31 33 36 37 37 38 41 44 48 52 51 47 45 44 45 43 42 41 41 42 42 43 44 42 42 42 40 37 34 34 34 33 31 26 22 20 19 18 17 15 14 12 11 11 10 9 10 10 10 12 12 11 12 11 11 10 9 9 9 9 9 8 9 11 14 14 14 17 19 20 21 18 16 16 15 15 17 18 19 20 19
42 35 29 26 27 29 32 31 32 37 43 44 45 48 49 49 50 47 43 41 40 40 39 39 39 40 40 39 41 43 42 42 41 39 37 35 34 33 29 25 21 18 18 17 16 15 14 12 11 10 9 9 9 10 10 10 11 11 11 11 11 10 10 10 10 10 10 10 10 11 14 15 14 15 19 20 22 21 19 19 18 17 19 21 22 22 22 21
38 33 27 24 25 26 29 31 32 39 46 50 51 50 49 49 47 43 41 39 39 38 38 39 40 40 40 40 42 44 42 41 39 36 35 33 30 28 24 21 19 18 16 15 15 14 12 11 10 9 9 9 9 10 10 10 11 10 10 11 11 11 12 13 12 12 12 12 11 12 14 16 16 17 20 21 24 22 20 23 22 22 25 25 25 25 24 24
36 31 26 25 25 24 26 31 36 42 47 50 51 47 46 48 46 44 42 41 41 41 42 43 42 41 41 42 43 43 41 37 34 31 28 25 23 22 21 19 18 16 14 13 12 12 11 11 10 9 9 9 10 10 10 11 11 10 11 12 14 16 16 15 15 14 14 15 14 13 14 18 20 20 21 22 25 23 22 26 27 27 29 28 28 27 26 26
34 29 26 25 24 24 28 37 43 45 48 50 49 46 45 46 46 46 45 45 46 46 46 44 43 41 42 42 41 39 35 32 28 24 22 21 20 19 18 17 15 13 12 10 10 11 10 10 9 9 9 9 11 10 10 11 10 11 12 13 16 20 19 16 16 16 15 17 17 15 16 20 23 23 23 24 25 24 25 29 30 30 31 30 29 28 28 28
31 25 24 24 26 29 34 42 46 46 48 49 46 44 44 43 44 44 44 44 44 44 43 40 39 38 37 38 36 33 30 27 24 22 21 19 18 17 16 15 13 11 10 10 9 9 9 9 9 9 9 9 10 9 13 14 13 15 15 20 22 21 23 20 16 17 17 19 18 17 21 22 24 25 26 27 26 24 28 31 31 32 33 32 31 30 30 29
28 26 27 29 34 37 38 42 45 46 47 47 46 44 43 43 43 42 41 41 40 38 35 32 31 31 30 31 30 28 26 24 22 21 19 18 17 16 14 12 10 9 9 9 9 8 8 8 8 9 9 11 12 12 18 21 23 22 17 26 29 22 26 23 16 18 18 17 17 18 24 25 25 27 27 29 28 27 30 32 32 33 34 34 34 32 31 29
32 32 35 37 40 39 41 45 47 46 47 47 47 45 44 43 42 41 40 38 36 33 29 28 28 28 27 27 26 24 23 22 21 20 18 17 15 13 11 9 9 9 9 10 10 9 8 8 9 11 11 13 15 16 19 24 30 30 21 24 27 23 25 22 17 19 17 16 16 19 25 26 26 27 27 30 30 31 33 33 34 35 35 36 35 34 32 29
36 38 40 41 40 39 40 46 48 46 46 46 46 44 43 42 40 39 37 35 34 32 30 28 26 26 26 25 25 24 23 21 20 19 18 16 13 11 10 9 9 9 10 10 10 10 10 11 11 12 14 16 19 21 21 25 29 29 27 24 25 25 24 22 20 18 16 17 19 24 28 28 28 27 28 30 31 33 34 34 35 36 36 37 36 34 32 30
40 42 42 40 39 39 39 42 45 45 43 43 43 42 42 41 39 37 35 34 35 34 32 30 27 28 28 26 25 24 23 21 20 19 17 15 12 10 10 9 9 10 10 10 10 12 12 13 14 16 20 20 21 25 24 26 26 24 26 24 23 25 23 21 21 18 17 21 25 28 30 31 30 30 31 32 32 34 34 34 35 36 36 36 35 34 32 30
44 44 43 40 39 39 39 40 41 42 41 40 39 40 40 39 38 36 34 35 35 34 34 32 30 31 29 26 24 23 21 20 18 17 15 13 11 9 10 9 10 10 10 11 12 13 13 14 15 17 22 21 21 25 25 26 26 22 23 22 20 21 20 19 21 21 22 26 30 32 33 34 33 32 32 31 32 32 34 35 36 36 36 36 36 34 33 31
48 48 45 43 41 40 40 41 41 42 42 42 40 40 40 40 41 39 33 32 32 31 31 29 27 27 25 22 21 20 19 17 15 14 12 11 10 10 10 9 11 11 11 14 14 13 14 17 19 19 22 23 23 25 24 23 24 21 21 22 20 21 22 21 21 23 25 29 34 34 34 34 32 31 30 29 31 33 35 36 37 38 38 38 37 35 34 33
49 49 48 46 44 41 40 41 42 40 41 43 42 42 40 38 42 39 31 29 29 26 24 23 22 21 19 19 18 17 15 14 13 12 11 11 11 10 11 11 12 12 13 15 14 15 15 16 23 26 25 23 22 23 22 20 20 20 21 21 22 23 24 22 23 27 28 29 34 34 34 35 32 32 30 30 33 35 37 38 40 40 40 40 40 40 39 38
46 47 47 46 44 43 41 41 40 38 37 39 41 42 38 34 34 31 27 28 26 22 21 20 19 18 17 17 16 15 13 12 12 11 11 11 12 11 11 13 13 14 17 16 15 18 19 19 25 26 22 20 21 23 23 20 21 23 23 22 23 26 26 25 28 31 27 26 31 33 34 35 33 33 33 35 38 40 42 44 44 45 44 44 42 42 42 40
45 44 44 44 43 42 41 41 40 39 36 37 39 39 35 31 29 25 23 26 24 21 20 19 18 16 15 14 14 14 12 11 12 12 12 12 12 13 12 14 15 16 18 18 17 18 18 20 22 20 18 18 20 23 23 22 24 26 25 23 24 26 24 22 25 28 25 25 30 34 38 39 37 38 40 40 42 44 44 43 43 41 39 39 38 37 36 35
47 44 42 42 42 41 41 41 39 38 36 35 36 34 32 30 27 22 21 24 25 22 18 17 16 15 14 13 13 13 13 14 15 14 14 13 13 13 13 14 16 17 17 19 21 19 19 19 17 19 22 21 21 23 22 21 22 25 28 26 24 24 22 22 26 28 29 31 35 37 42 43 40 40 40 37 37 39 39 39 38 37 37 36 35 34 33 34
49 45 42 40 40 39 39 39 38 37 35 35 34 31 29 27 24 19 18 23 25 23 20 18 18 16 15 15 14 14 15 16 16 15 15 14 13 13 13 13 13 15 18 20 20 19 19 18 17 21 25 25 26 24 21 20 20 24 31 30 26 26 26 29 30 28 27 30 32 33 36 39 36 35 35 33 34 37 38 39 40 39 38 36 35 35 35 36
49 47 44 40 39 38 36 36 35 33 32 32 31 28 24 23 21 16 18 27 28 23 22 20 21 20 17 17 16 16 18 17 16 16 14 13 13 12 13 14 13 14 17 17 18 19 20 21 21 22 25 26 27 25 24 27 26 27 31 32 28 26 25 24 22 21 20 21 23 25 28 35 36 34 34 34 36 39 39 41 42 41 40 38 38 39 40 40
47 46 43 40 38 36 33 32 32 30 30 28 26 24 21 20 18 12 19 31 28 22 22 21 21 21 19 18 16 15 16 16 14 14 13 12 12 11 14 17 15 15 17 17 20 22 22 23 24 26 29 30 29 28 29 30 26 22 23 23 21 19 18 17 15 16 17 18 22 25 25 33 36 34 34 35 39 41 41 43 43 42 42 40 40 40 41 41
45 45 42 38 36 34 31 32 32 30 30 27 23 20 19 19 15 14 25 29 22 21 21 20 19 17 17 16 14 13 13 13 14 13 12 12 12 13 16 18 17 17 19 20 23 24 25 27 28 30 32 30 27 25 25 22 17 16 18 18 17 16 17 18 16 17 19 19 23 25 24 30 34 34 34 36 40 41 41 42 43 43 43 43 42 41 41 41
44 45 42 37 34 32 31 33 32 29 28 24 20 18 18 17 13 19 28 23 18 22 21 19 17 14 15 14 13 13 12 13 14 12 11 13 13 14 18 19 19 22 24 27 31 30 31 31 29 30 27 23 22 21 21 17 12 14 16 15 17 19 19 19 19 22 25 24 23 23 22 24 28 32 35 35 38 39 39 41 43 44 45 44 44 44 43 43
42 44 41 37 34 32 32 33 31 28 25 21 19 19 17 15 19 26 24 17 19 22 20 18 15 13 14 15 13 14 14 14 15 14 13 14 14 15 19 19 22 31 33 33 36 33 30 28 24 24 22 19 19 19 18 16 13 14 16 15 14 16 19 23 27 26 24 27 29 24 19 18 20 28 34 35 35 37 38 41 42 43 44 45 45 46 47 46
40 42 40 37 35 34 33 31 28 26 23 20 19 19 15 18 30 31 18 14 21 21 19 17 15 17 18 16 14 16 18 17 16 17 18 19 18 20 25 25 28 38 36 30 31 26 23 23 20 20 20 19 18 15 14 16 16 15 16 14 10 13 20 27 30 26 25 28 28 23 18 15 18 26 34 36 36 37 39 41 44 44 44 45 46 48 49 49
38 40 39 36 34 32 31 30 27 24 22 21 19 17 19 24 27 25 17 17 21 20 18 16 17 20 21 19 17 19 21 18 18 22 25 29 30 29 30 28 26 28 25 22 21 19 19 21 21 20 19 17 16 14 13 15 16 15 16 17 18 24 29 31 30 29 31 28 20 19 18 16 21 29 35 37 38 38 37 38 42 45 46 47 48 50 51 50
38 39 37 34 32 30 30 30 27 23 21 20 17 16 25 28 20 17 20 20 19 18 17 18 21 23 22 20 18 20 22 21 23 29 32 35 35 32 28 25 21 17 13 15 15 17 21 21 21 19 15 16 16 13 12 13 15 16 18 21 25 32 35 36 36 33 30 24 16 17 21 24 30 34 36 37 36 36 36 38 43 46 49 49 49 51 51 49
39 38 36 32 30 29 30 29 25 22 20 17 17 19 22 21 16 17 20 20 20 20 20 22 24 23 23 21 20 22 25 27 31 34 35 35 32 27 24 20 19 16 15 15 14 19 21 16 16 15 12 16 17 14 13 15 18 20 21 22 23 27 30 32 37 34 30 28 21 17 22 32 37 36 36 37 35 37 39 43 46 48 52 53 52 53 53 51
39 38 34 30 29 27 27 25 20 19 17 15 20 24 20 14 16 21 21 22 22 21 22 26 26 25 26 26 28 30 30 31 35 34 32 32 27 23 21 16 15 18 19 15 14 19 18 13 16 16 14 17 16 16 17 18 20 23 22 21 22 26 28 32 36 33 32 35 31 24 27 36 38 36 38 39 38 40 41 45 50 54 56 56 54 53 50 47
39 36 32 29 27 24 22 19 16 16 15 16 21 23 20 17 18 22 23 23 21 20 22 25 28 29 29 31 35 37 31 27 30 30 27 27 24 21 20 17 15 18 18 15 16 19 14 11 17 19 16 18 17 16 19 18 20 23 21 20 23 26 28 33 35 32 35 41 36 28 27 33 37 38 39 41 43 43 43 47 53 57 58 55 52 49 45 42
35 31 27 25 22 20 18 14 14 14 13 17 22 21 20 21 22 24 25 22 21 23 25 26 27 30 33 35 34 31 27 23 24 26 22 21 22 20 20 18 15 16 19 17 16 18 16 13 18 21 18 17 17 16 18 19 21 25 24 22 26 29 30 34 38 41 47 47 37 26 24 28 34 40 45 46 44 44 46 50 53 56 57 55 51 46 43 41
27 24 22 20 17 16 15 13 13 14 13 20 27 25 23 24 23 24 25 23 24 27 31 32 31 31 33 31 26 23 25 23 22 23 20 20 22 20 20 19 16 16 20 18 15 18 21 18 18 21 18 17 18 16 17 20 21 24 25 25 27 30 34 38 40 43 46 44 39 33 27 28 33 42 49 48 43 42 44 47 52 57 58 55 50 44 42 41
25 21 18 16 15 13 14 13 12 13 16 22 27 24 23 25 23 22 24 26 30 33 35 35 32 31 29 26 21 20 21 20 19 20 19 18 20 20 19 18 17 17 18 19 17 17 21 21 18 20 18 16 16 16 16 19 21 23 26 28 29 32 37 39 35 36 42 42 44 44 35 30 36 42 43 42 40 38 38 44 52 56 55 52 47 42 39 36
24 20 16 15 15 14 14 13 13 17 21 24 26 25 24 24 23 24 28 32 36 36 35 33 30 27 24 21 19 18 18 18 17 18 19 20 19 19 19 19 20 20 18 17 18 18 20 19 15 17 19 15 13 15 17 18 21 25 27 29 30 30 32 33 28 29 37 39 44 52 45 32 35 38 34 35 39 37 40 49 52 51 49 48 45 40 36 34
21 18 16 15 15 14 13 14 17 23 26 25 25 27 26 25 26 30 35 37 37 33 28 28 27 24 21 18 17 17 19 20 19 19 20 20 18 17 18 19 20 21 19 18 20 21 19 16 16 19 20 15 14 17 19 20 23 25 26 27 29 29 28 31 33 32 35 38 40 49 47 34 32 34 31 33 38 40 47 53 51 48 46 44 40 36 35 35
19 17 16 13 14 12 13 18 22 24 27 25 23 25 28 31 34 36 36 34 31 26 23 23 24 22 19 17 17 18 21 21 19 20 19 19 20 18 17 17 18 20 20 20 21 20 18 20 23 23 19 15 16 19 22 25 25 25 27 28 29 31 29 32 38 35 36 42 42 48 53 44 37 36 31 31 37 45 53 52 47 45 42 38 35 34 36 38
17 16 14 12 13 11 12 20 24 25 25 24 24 29 34 38 38 36 33 30 26 23 22 22 20 18 16 17 17 17 19 19 18 19 20 22 22 20 17 15 15 18 19 19 21 20 19 23 24 21 21 18 16 21 25 27 26 25 25 26 27 29 29 32 38 41 46 48 46 55 60 47 38 39 35 33 41 51 55 50 45 42 38 36 36 37 39 41
16 15 13 12 12 12 15 20 25 25 24 25 32 37 37 37 36 33 31 28 24 22 21 20 18 14 15 18 18 15 15 17 17 17 20 22 21 19 16 13 14 16 16 16 19 18 17 21 24 23 25 21 18 24 28 26 25 23 22 26 31 32 35 39 42 49 57 53 47 59 61 43 39 45 41 41 49 53 51 47 44 41 39 38 39 40 42 43
16 15 13 13 12 13 16 18 21 27 32 36 39 40 36 33 30 28 26 23 20 19 18 16 15 14 16 18 17 16 16 15 16 16 17 20 21 19 16 13 14 15 15 16 18 18 17 22 25 24 25 27 25 25 26 25 26 24 22 28 33 35 38 41 44 53 60 55 51 59 56 40 38 45 44 47 53 52 47 44 42 41 40 40 41 42 45 48
17 16 15 14 12 13 15 16 21 31 40 43 39 35 34 32 27 22 20 18 17 16 15 15 14 14 15 18 19 17 17 17 17 18 18 18 19 19 18 16 16 16 18 18 17 20 23 24 25 26 28 28 26 24 25 26 26 24 24 27 29 33 37 41 49 54 54 56 55 49 46 42 39 39 40 44 50 49 44 42 41 40 40 40 43 47 49 50
16 18 18 15 13 15 19 23 29 36 40 38 34 30 30 31 26 19 16 16 15 15 15 15 16 13 13 17 17 14 16 19 18 17 19 20 20 20 19 19 18 18 20 18 16 21 24 20 22 28 29 28 27 26 26 26 26 25 27 28 28 33 39 43 48 46 46 57 56 40 39 47 42 37 39 44 48 46 42 42 43 41 41 44 47 49 50 49
16 18 18 16 18 24 30 32 35 38 37 34 32 30 29 29 25 21 18 16 15 15 14 14 16 17 17 16 14 12 16 18 16 17 19 20 22 23 21 20 19 18 19 18 17 22 24 21 23 26 26 26 27 25 25 26 28 27 29 31 29 32 40 43 43 41 44 55 51 39 42 48 44 43 46 47 47 45 44 44 44 44 47 49 50 50 49 49
15 16 18 22 27 34 39 37 34 34 34 33 32 29 27 27 24 22 21 17 14 15 15 14 15 19 21 21 17 15 16 12 10 15 21 22 24 25 23 22 21 19 20 21 20 23 24 26 29 28 26 27 26 26 27 29 29 28 29 32 32 33 38 41 43 44 46 50 47 46 50 49 45 48 49 46 47 47 46 46 46 50 53 53 53 53 52 53
15 19 24 31 35 38 38 35 31 30 31 32 30 25 25 27 24 21 20 17 14 14 16 17 18 19 23 26 21 16 17 15 11 13 21 22 22 24 25 24 23 23 24 25 24 24 23 28 35 32 27 29 29 28 29 30 31 31 30 32 35 37 39 42 46 48 50 52 51 53 56 52 47 49 49 47 48 48 47 50 52 55 57 58 59 57 57 59
23 28 31 35 38 39 34 30 30 31 30 29 28 24 23 24 21 19 19 17 15 16 17 19 21 21 23 23 19 16 18 21 19 18 23 23 20 23 24 22 24 26 28 29 27 26 27 30 36 37 32 29 28 29 31 31 32 34 35 35 38 40 42 46 50 51 53 56 57 58 60 55 50 50 50 48 47 48 50 54 59 61 63 65 64 61 62 68
32 34 34 34 37 37 33 31 32 29 24 24 27 26 21 19 18 18 16 15 16 17 18 19 20 22 21 16 14 16 17 19 20 21 25 25 24 25 25 24 25 27 31 33 30 31 34 33 34 38 37 32 29 32 34 33 33 36 40 40 40 41 44 46 50 53 56 59 63 64 61 56 54 56 55 51 50 51 54 59 67 72 70 67 65 67 72 78